Weather History for Kendall, FL

Change the Weather History Date:

Tuesday, January 8, 2013

  Actual Average Record
Temperature  
Mean Temperature 74 °F -  
Max Temperature 82 °F 79 °F 86 °F (1998)
Min Temperature 66 °F 58 °F 35 °F (2006)
Cooling Degree Days 9    
Growing Degree Days 24 (Base 50)    
Moisture  
Dew Point 70 °F    
Average Humidity 89    
Maximum Humidity 100    
Minimum Humidity 69    
Precipitation  
Precipitation 0.26 in - - ()
Sea Level Pressure  
Sea Level Pressure 30.13 in    
Wind  
Wind Speed 4 mph (ESE)    
Max Wind Speed 16 mph    
Max Gust Speed 26 mph    
Visibility 7 miles    
Events Fog , Rain    
Averages and records for this station are not official NWS values.
T = Trace of Precipitation, MM = Missing Value Source: NWS Daily Summary

Daily Weather History Graph

Daily Weather History Graph

Search for Another Location

Airport:

Trip Planner

Search our weather history database for the weather conditions in past years. The results will help you decide how hot, cold, wet, or windy it might be!

Date:

Astronomy

Jan. 08, 2013 Rise Set
Actual Time 7:09 AM EST 5:47 PM EST
Civil Twilight 6:44 AM EST 6:12 PM EST
Nautical Twilight 6:16 AM EST 6:41 PM EST
Astronomical Twilight 5:48 AM EST 7:09 PM EST
Moon 3:42 AM EST (1/8) 2:47 PM EST (1/8)
Length of Visible Light 11h 28m
Length of Day
10h 38m
Waning Crescent, 14% of the Moon is Illuminated
Jan 8
Waning Crescent
Jan 11
New
Jan 18
First Quarter
Jan 26
Full
Feb 3
Last Quarter

Hourly Weather History & Observations

Time (EST) Temp. Heat Index Dew Point Humidity Pressure Visibility Wind Dir Wind Speed Gust Speed Precip Events Conditions
12:53 AM 68.0 °F - 66.9 °F 96% 30.11 in 10.0 mi Calm Calm - N/A   Scattered Clouds
1:53 AM 70.0 °F - 68.0 °F 93% 30.09 in 10.0 mi Calm Calm - 0.00 in Rain Light Rain
2:53 AM 69.1 °F - 68.0 °F 96% 30.08 in 1.8 mi Calm Calm - 0.11 in Rain Heavy Rain
2:56 AM 69.8 °F - 68.0 °F 94% 30.08 in 2.0 mi Calm Calm - 0.01 in Rain Rain
3:04 AM 69.8 °F - 69.8 °F 100% 30.08 in 7.0 mi Calm Calm - 0.01 in Rain Light Rain
3:50 AM 69.8 °F - 69.8 °F 100% 30.07 in 10.0 mi Calm Calm - 0.02 in   Mostly Cloudy
3:53 AM 70.0 °F - 69.1 °F 97% 30.07 in 10.0 mi Calm Calm - 0.02 in   Mostly Cloudy
4:16 AM 68.0 °F - 66.2 °F 94% 30.08 in 2.0 mi Calm Calm - N/A   Clear
4:27 AM 68.0 °F - 68.0 °F 100% 30.07 in 1.0 mi Calm Calm - N/A   Mist
4:35 AM 68.0 °F - 68.0 °F 100% 30.08 in 0.5 mi Calm Calm - N/A Fog Fog
4:53 AM 69.1 °F - 68.0 °F 96% 30.08 in 1.2 mi Calm Calm - N/A   Scattered Clouds
5:05 AM 68.0 °F - 68.0 °F 100% 30.08 in 0.8 mi Calm Calm - N/A   Mist
5:53 AM 66.9 °F - 66.9 °F 100% 30.10 in 0.8 mi NNE 3.5 mph - N/A   Mist
6:11 AM 68.0 °F - 66.2 °F 94% 30.11 in 1.2 mi Calm Calm - N/A   Scattered Clouds
6:15 AM 68.0 °F - 68.0 °F 100% 30.11 in 4.0 mi Calm Calm - N/A   Scattered Clouds
6:53 AM 68.0 °F - 68.0 °F 100% 30.13 in 6.0 mi Calm Calm - N/A   Clear
7:53 AM 68.0 °F - 68.0 °F 100% 30.15 in 6.0 mi Calm Calm - N/A   Partly Cloudy
8:53 AM 75.2 °F - 71.6 °F 89% 30.18 in 10.0 mi East 4.6 mph - N/A   Partly Cloudy
9:53 AM 80.1 °F 83.6 °F 71.1 °F 74% 30.20 in 10.0 mi SE 9.2 mph 19.6 mph N/A   Scattered Clouds
10:53 AM 81.0 °F 84.4 °F 70.0 °F 69% 30.19 in 10.0 mi SE 11.5 mph - N/A   Scattered Clouds
11:53 AM 82.0 °F 86.3 °F 71.1 °F 69% 30.17 in 10.0 mi ESE 15.0 mph - N/A   Mostly Cloudy
12:30 PM 73.4 °F - 69.8 °F 88% 30.17 in 4.0 mi SE 16.1 mph 24.2 mph 0.03 in Rain Heavy Rain
12:38 PM 71.6 °F - 69.8 °F 94% 30.17 in 2.5 mi ESE 15.0 mph 26.5 mph 0.08 in Rain Rain
12:48 PM 71.6 °F - 69.8 °F 94% 30.16 in 6.0 mi ESE 12.7 mph - 0.09 in Rain Light Rain
12:53 PM 73.0 °F - 69.1 °F 87% 30.15 in 10.0 mi ESE 8.1 mph 19.6 mph 0.09 in Rain Light Rain
1:53 PM 78.1 °F - 71.1 °F 79% 30.13 in 10.0 mi ESE 11.5 mph - 0.00 in   Overcast
2:53 PM 77.0 °F - 70.0 °F 79% 30.12 in 10.0 mi SE 10.4 mph - 0.04 in Rain Light Rain
3:53 PM 78.1 °F - 71.1 °F 79% 30.12 in 10.0 mi ESE 11.5 mph - 0.00 in   Mostly Cloudy
4:17 PM 78.8 °F - 71.6 °F 78% 30.13 in 10.0 mi SE 12.7 mph - N/A   Mostly Cloudy
4:24 PM 78.8 °F - 71.6 °F 78% 30.13 in 10.0 mi ESE 12.7 mph - N/A   Mostly Cloudy
4:33 PM 78.8 °F - 71.6 °F 78% 30.13 in 10.0 mi ESE 11.5 mph - N/A   Scattered Clouds
4:46 PM 78.8 °F - 71.6 °F 78% 30.13 in 10.0 mi ESE 11.5 mph - N/A   Mostly Cloudy
4:53 PM 78.1 °F - 71.1 °F 79% 30.13 in 10.0 mi ESE 12.7 mph - N/A   Scattered Clouds
5:53 PM 75.9 °F - 72.0 °F 87% 30.14 in 10.0 mi ESE 9.2 mph - N/A   Partly Cloudy
6:53 PM 75.0 °F - 72.0 °F 90% 30.15 in 10.0 mi East 10.4 mph - N/A   Partly Cloudy
7:53 PM 73.9 °F - 72.0 °F 93% 30.15 in 10.0 mi East 8.1 mph - N/A   Mostly Cloudy
8:53 PM 73.9 °F - 72.0 °F 93% 30.16 in 10.0 mi East 8.1 mph - 0.00 in   Mostly Cloudy
9:00 PM 73.4 °F - 71.6 °F 94% 30.16 in 10.0 mi East 8.1 mph - N/A   Mostly Cloudy
9:28 PM 75.2 °F - 71.6 °F 89% 30.16 in 10.0 mi SE 8.1 mph 18.4 mph 0.00 in   Overcast
9:53 PM 75.9 °F - 72.0 °F 87% 30.15 in 10.0 mi SE 10.4 mph - 0.00 in   Overcast
10:53 PM 75.2 °F - 69.8 °F 83% 30.16 in 10.0 mi ESE 8.1 mph - N/A   Overcast